Flag Weather past 2 weeks in Mashhad, Iran

Now
43 °F

Fog.


Feels Like: 40 °F
Forecast: 32 / 47 °F
Wind: 5 mph from East

Location: Mashhad Airport

Current Time: Nov 28, 2014 at 1:26:50 PM

Latest Report: Nov 28, 2014 at 1:00 PM


Visibility: 2 mi

Pressure: 30.15 "Hg

Humidity: 100%

Dew point: 43 °F

Location of MashhadLocation

Historic Weather in Mashhad — Graph

°F

Mashhad temperature yesterday

Maximum temperature yesterday: 45 °F (at 11:55 AM)
Minimum temperature yesterday: 34 °F (at 12:00 AM)
Average temperature yesterday: 40 °F

Past Weeks' High & Low Weather Summary

 TemperatureHumidityPressure
High70 °F (Nov 16, 2:30 PM)100% (Nov 19, 10:30 PM)30.39 "Hg (Nov 19, 10:30 PM)
Low32 °F (Nov 14, 5:00 AM)17% (Nov 16, 2:30 PM)29.80 "Hg (Nov 23, 2:00 PM)
Average46 °F72%30.18 "Hg
* Reported Nov 13 11:30 AM — Nov 28 12:00 Noon, Mashhad, Weather by CustomWeather, © 2014

Note: Actual official high and low records may vary slightly from our data, if they occured in-between our weather recording intervals... More about our weather records

Advertising

Mashhad weather history for previous 24 hours

 ConditionsComfort  
Time TempWeatherWind HumidityBarometerVisibility
12:00 PM
Nov 28
43 °FDrizzle. Fog.5 mph100%30.18 "Hg1 mi
11:30 AM41 °FFog.No wind100%30.18 "Hg1 mi
11:00 AM41 °FFog.No wind100%30.18 "Hg1 mi
10:30 AM41 °FFog.5 mph100%30.18 "Hg1 mi
10:00 AM41 °FFog.5 mph100%30.18 "Hg1 mi
9:30 AM41 °FFog.5 mph100%30.21 "Hg2 mi
9:00 AM41 °FFog.No wind100%30.18 "Hg1 mi
8:30 AM41 °FFog.No wind100%30.18 "Hg1 mi
8:00 AM39 °FFog.5 mph100%30.18 "Hg1 mi
7:30 AM39 °FFog.No wind100%30.18 "Hg1 mi
6:55 AM39 °FFog.No wind100%30.15 "Hg1 mi
6:30 AM39 °FFog.No wind100%N/A1 mi
5:55 AM39 °FFog.5 mph100%30.15 "Hg1 mi
5:30 AM39 °FFog.7 mph100%30.15 "Hg1 mi
5:00 AM39 °FFog.5 mph100%30.15 "Hg1 mi
4:30 AM39 °FFog.No wind100%30.12 "Hg1 mi
4:00 AM39 °FFog.5 mph100%30.12 "Hg1 mi
3:20 AM39 °FFog.5 mph100%30.12 "Hg0 mi
3:00 AM39 °FFog.5 mph100%30.12 "Hg0 mi
2:20 AM39 °FFog.5 mph100%30.15 "Hg0 mi
2:00 AM39 °FFog.5 mph100%30.15 "Hg0 mi
1:30 AM39 °FFog.5 mph100%30.15 "Hg0 mi
12:50 AM39 °FFog.5 mph100%30.15 "Hg0 mi
12:30 AM39 °FFog.5 mph100%30.15 "Hg0 mi
11:50 PM
Nov 27
39 °FFog.5 mph100%30.15 "Hg0 mi
11:30 PM39 °FFog.5 mph100%30.15 "Hg0 mi
10:50 PM39 °FFog.5 mph100%30.15 "Hg0 mi
10:30 PM41 °FFog.5 mph100%30.15 "Hg0 mi
9:50 PM41 °FFog.7 mph100%30.15 "Hg0 mi
9:30 PMN/AFog.5 mphN/A30.15 "Hg1 mi
8:50 PM43 °FPassing clouds.5 mph87%30.15 "Hg4 mi
8:30 PM43 °FPassing clouds.5 mph87%30.15 "Hg4 mi
8:00 PM43 °FPassing clouds.5 mph87%30.15 "Hg4 mi
7:30 PM43 °FPassing clouds.No wind87%30.15 "Hg4 mi
7:00 PM45 °FPassing clouds.5 mph76%30.15 "Hg4 mi
6:30 PM45 °FPassing clouds.No wind76%30.15 "Hg4 mi
5:55 PM45 °FOvercast.No wind81%30.15 "Hg4 mi
5:30 PM45 °FOvercast.5 mph81%30.12 "Hg4 mi
4:55 PM45 °FOvercast.5 mph81%30.12 "Hg5 mi
4:30 PM45 °FOvercast.5 mph76%30.12 "Hg5 mi
3:55 PM45 °FOvercast.5 mph76%30.12 "Hg5 mi
3:30 PM45 °FOvercast.7 mph76%30.09 "Hg5 mi
3:00 PM45 °FOvercast.5 mph81%30.09 "Hg4 mi
2:20 PM45 °FPartly sunny.7 mph81%30.12 "Hg4 mi
1:55 PM45 °FOvercast.7 mph87%30.12 "Hg4 mi
1:30 PM45 °FOvercast.7 mph81%30.12 "Hg4 mi
1:00 PM45 °FFog.5 mph87%30.12 "Hg3 mi
Weather by CustomWeather, © 2014

See weather overviewHow to use our weather pages